Location: Peach Mountain Observatory
(42.3967°N, 83.9367°W)
Time: 09:34:15
(UTC-05:00)

Vanguard 2 Rocket - All Passes

Search period start: 23 January 2020 00:00
Search period end: 02 February 2020 00:00
Orbit: 554 x 3326 km, 32.9° (Epoch: 22 January)

Date Brightness Start Highest point End Pass type
(mag) Time Alt. Az. Time Alt. Az. Time Alt. Az.
23 Jan - 06:28:57 10° SW 06:33:14 29° SSE 06:39:35 10° ESE visible
23 Jan - 08:39:58 10° WSW 08:46:00 42° S 08:56:11 10° ESE daylight
23 Jan - 10:52:19 10° WSW 11:00:02 32° SSW 11:12:08 10° SE daylight
23 Jan - 13:08:26 10° WSW 13:15:01 15° SSW 13:23:07 10° S daylight
24 Jan - 05:30:53 10° SSW 05:34:12 20° SSE 05:38:28 10° ESE visible
24 Jan - 07:41:18 10° WSW 07:46:25 39° S 07:54:44 10° ESE daylight
24 Jan - 09:53:08 10° WSW 09:59:53 35° SSW 10:10:52 10° SE daylight
24 Jan - 12:07:20 10° WSW 12:14:27 19° SSW 12:24:00 10° SSE daylight
25 Jan - 04:33:37 10° S 04:35:16 12° SSE 04:37:03 10° SE visible
25 Jan - 06:42:47 10° SW 06:47:06 33° SSE 06:53:35 10° ESE visible
25 Jan - 08:54:12 10° WSW 09:00:01 36° S 09:09:32 10° SE daylight
25 Jan - 11:07:16 10° WSW 11:14:05 23° SSW 11:23:53 10° SSE daylight
26 Jan - 05:44:24 10° SW 05:47:59 25° SSE 05:52:46 10° ESE visible
26 Jan - 07:55:27 10° WSW 08:00:26 35° S 08:08:20 10° ESE daylight
26 Jan - 10:07:47 10° WSW 10:13:57 26° SSW 10:23:16 10° SSE daylight
26 Jan - 12:25:14 10° SW 12:28:28 11° SSW 12:32:06 10° SSW daylight
27 Jan - 04:46:15 10° SSW 04:48:59 17° SSE 04:52:08 10° ESE visible
27 Jan - 06:56:49 10° WSW 07:01:04 32° S 07:07:24 10° ESE visible
27 Jan - 09:08:40 10° WSW 09:14:06 28° SSW 09:22:27 10° SE daylight
27 Jan - 11:23:20 10° SW 11:28:09 15° SSW 11:34:13 10° S daylight
28 Jan - 03:48:51 10° S 03:49:58 11° SSE 03:51:08 10° SE visible
28 Jan - 05:58:14 10° SW 06:01:54 28° S 06:06:49 10° ESE visible
28 Jan - 08:09:46 10° WSW 08:14:29 29° S 08:21:39 10° SE daylight
28 Jan - 10:23:06 10° WSW 10:28:04 17° SSW 10:34:44 10° SSE daylight
29 Jan - 04:59:43 10° SW 05:02:51 22° SSE 05:06:32 10° ESE visible
29 Jan - 07:11:00 10° WSW 07:15:06 29° S 07:21:02 10° SE visible
29 Jan - 09:23:33 10° WSW 09:28:13 20° SSW 09:34:43 10° SSE daylight
30 Jan - 04:01:18 10° SSW 04:03:49 16° SSE 04:06:27 10° ESE visible
30 Jan - 06:12:17 10° WSW 06:15:53 27° S 06:20:40 10° ESE visible
30 Jan - 08:24:23 10° WSW 08:28:35 22° SSW 08:34:30 10° SSE daylight
31 Jan - 03:03:10 10° S 03:04:44 12° SSE 03:06:16 10° SE night (unlit)
31 Jan - 05:13:33 10° SW 05:16:48 24° S 05:20:37 10° ESE visible
31 Jan - 07:25:25 10° WSW 07:29:10 23° S 07:34:18 10° SE daylight
31 Jan - 09:39:46 10° SW 09:42:21 12° SSW 09:45:22 10° S daylight
01 Feb - 04:14:45 10° SW 04:17:45 20° S 04:20:53 10° ESE visible
01 Feb - 06:26:32 10° WSW 06:29:56 23° S 06:34:16 10° SE visible
01 Feb - 08:39:45 10° SW 08:42:42 14° SSW 08:46:20 10° SSE daylight
